{"data":{"norad_id":57906,"epoch":"2026-09-20T09:58:29.645760Z","epoch_age_seconds":142402,"freshness":"FRESH","line1":"1 57906U 23146R   26263.41562090 -.00000249  00000+0  48324-6 0  9991","line2":"2 57906  43.0038 294.7874 0001466 275.9584  84.1100 15.27572667165773","mean_motion":15.27572667,"eccentricity":0.0001466,"inclination_deg":43.0038,"raan_deg":294.7874,"arg_perigee_deg":275.9584,"mean_anomaly_deg":84.11,"bstar":4.8324e-7,"rev_number":16577,"period_min":94.267201234231,"perigee_km":482.06520066684,"apogee_km":484.07690686821,"semimajor_km":6861.2080537675,"source":"CELESTRAK","updated_at":"2026-09-21T09:00:33.723331Z"}}